Location: Quedlinburg
(51.7921°N, 11.1414°E)
Time: 08:28:34
(UTC+02:00)

SO-50 - Pass Details

Date: 15 March 2026
Orbit: 567 x 673 km, 64.6° (Epoch: 13 April)

Event Time Altitude Azimuth Distance (km) Brightness Sun altitude
Rises 20:58:53 0° 271° (W) 2,979 ? -24.3°
Reaches altitude 10° 21:01:35 10° 286° (WNW) 2,083 ? -24.7°
Maximum altitude 21:05:23 23° 339° (NNW) 1,407 ? -25.2°
Drops below altitude 10° 21:09:15 10° 33° (NNE) 2,113 ? -25.7°
Enters shadow 21:09:38 - 36° (NE) 2,228 ? -25.7°
